EW6370 Weather Reports


time (UTC)temp
C
wind
direction
speed
KPH
gust
KPH
rain 1hr
cm
rain 24hr
cm
rain mn
cm
humidity
%
barometer
mb
20260507174547 18 123 0.0 3.2 0.00 0.48 0.48 72 1012.2
20260507173115 18 136 0.0 4.8 0.00 0.48 0.48 70 1012.2
20260507171547 18 109 0.0 8.0 0.00 0.48 0.48 69 1012.2
20260507170048 18 133 0.0 11.3 0.00 0.48 0.48 71 1012.2
20260507164553 18 125 0.0 6.4 0.00 0.48 0.48 72 1012.2
20260507163044 18 131 0.0 6.4 0.00 0.48 0.48 70 1012.2
20260507161549 18 300 0.0 4.8 0.00 0.48 0.48 70 1012.1
20260507160059 18 130 0.0 6.4 0.00 0.48 0.48 68 1012.1
20260507154541 18 310 4.8 12.9 0.00 0.48 0.48 68 1012.2
20260507153043 18 121 0.0 8.0 0.00 0.48 0.48 68 1012.0
20260507151542 19 94 0.0 14.5 0.00 0.48 0.48 67 1012.0
20260507150040 18 223 0.0 4.8 0.00 0.48 0.48 70 1012.0
20260507144549 18 159 1.6 8.0 0.00 0.48 0.48 70 1012.0
20260507143038 19 125 0.0 11.3 0.00 0.48 0.48 71 1012.0
20260507141534 18 131 0.0 4.8 0.00 0.48 0.48 75 1012.1
20260507140034 18 137 0.0 4.8 0.00 0.48 0.48 75 1012.2
20260507134531 18 137 1.6 11.3 0.00 0.48 0.48 74 1012.3
20260507133030 17 304 0.0 4.8 0.00 0.48 0.48 77 1012.5
20260507131530 17 36 0.0 3.2 0.00 0.48 0.48 77 1012.8
20260507130031 17 155 0.0 6.4 0.00 0.48 0.48 78 1013.3
20260507124523 17 219 0.0 1.6 0.00 0.48 0.48 81 1013.3
20260507123029 17 127 0.0 3.2 0.00 0.48 0.48 81 1013.4
20260507121520 17 321 0.0 3.2 0.00 0.48 0.48 81 1013.6
20260507120018 17 180 0.0 4.8 0.00 0.48 0.48 82 1013.5
20260507114517 16 213 0.0 1.6 0.00 0.48 0.48 83 1013.4
20260507113024 16 302 0.0 3.2 0.00 0.48 0.48 85 1013.5
20260507111514 16 302 0.0 0.0 0.00 0.48 0.48 85 1013.8
20260507110015 16 299 0.0 3.2 0.00 0.48 0.48 85 1013.7
20260507104515 16 305 0.0 0.0 0.00 0.48 0.48 86 1013.6
20260507103013 16 125 0.0 0.0 0.03 0.48 0.48 87 1013.9
20260507101516 16 150 0.0 0.0 0.05 0.48 0.48 87 1013.9
20260507100013 16 230 0.0 1.6 0.05 0.48 0.48 87 1013.9
20260507094510 15 136 0.0 4.8 0.05 0.48 0.48 87 1014.0
20260507093011 15 302 0.0 3.2 0.05 0.46 0.46 87 1014.0
20260507091507 15 121 0.0 3.2 0.03 0.43 0.43 87 1014.1
20260507090006 15 132 0.0 0.0 0.03 0.43 0.43 87 1013.9
20260507084507 15 126 0.0 0.0 0.05 0.43 0.43 86 1013.7
20260507083002 15 125 0.0 1.6 0.15 0.43 0.43 86 1013.6